Regional Weather Roundup
Issued by NWS

Home | Current Version | Previous Version | Graphics & Text | Print | Product List | Glossary On
Versions: 1 2 3 4 5 6 7 8 9 10 11 12 13 14 15 16 17 18 19 20 21 22 23 24 25 26 27 28 29 30 31 32 33 34 35 36 37 38 39 40 41 42 43 44 45 46 47 48 49 50
000
ASUS43 KFSD 222202
RWRSD

WEATHER ROUNDUP FOR SOUTH DAKOTA
NATIONAL WEATHER SERVICE SIOUX FALLS SD
500 PM CDT TUE JUL 22 2014

NOTE: "FAIR" INDICATES FEW OR NO CLOUDS BELOW 12,000 FEET WITH NO
SIGNIFICANT WEATHER AND/OR OBSTRUCTIONS TO VISIBILITY.


SDZ001>005-009-010-012>017-222300-
NORTHWEST AND NORTH CENTRAL SOUTH DAKOTA

CITY           SKY/WX    TMP DP  RH WIND       PRES   REMARKS
BUFFALO          N/A     87  58  37 SE10G21   30.12F
FAITH            N/A     83  58  42 SE9       30.21F
MOBRIDGE       SUNNY     84  59  42 VRB5      30.17S
$$

SDZ012>016-024>037-041>051-057-063-072>074-222300-
SOUTHWEST AND SOUTH CENTRAL SOUTH DAKOTA

CITY           SKY/WX    TMP DP  RH WIND       PRES   REMARKS
RAPID CTY ARPT SUNNY     80  64  58 SE8       30.21F
PIERRE         SUNNY     86  57  37 SE8       30.17S
CUSTER         SUNNY     80  54  40 S9        30.36F
ELLSWORTH AFB  SUNNY     87  60  39 S17       30.20F
PHILIP         SUNNY     88  59  37 E8        30.18F
PINE RIDGE     SUNNY     85  62  46 E10       30.23S
WINNER         FAIR      87  61  41 E6        30.19F
$$

SDZ004>011-016>023-039-040-222300-
NORTHEAST SOUTH DAKOTA

CITY           SKY/WX    TMP DP  RH WIND       PRES   REMARKS
ABERDEEN       MOSUNNY   80  61  52 NE10      30.19R
WATERTOWN      SUNNY     79  56  45 NE15G21   30.19R
SISSETON         N/A     80  59  48 NE10      30.17R
$$

SDZ017-020-022-023-036>040-048>070-222300-
SOUTHEAST SOUTH DAKOTA

CITY           SKY/WX    TMP DP  RH WIND       PRES   REMARKS
SIOUX FALLS    MOSUNNY   82  62  50 NE8       30.17R
HURON          SUNNY     83  59  44 N12       30.17S
CHAMBERLAIN    SUNNY     84  58  40 NE10      30.18F
MITCHELL       SUNNY     84  61  45 MISG      30.17F
YANKTON        SUNNY     82  66  57 N13       30.14S
$$

ABBREVIATIONS USED IN REMARKS
   TC - TEMPERATURE IN CELSIUS
  WCI - WIND CHILL INDEX
   HX - HEAT INDEX
  VSB - VISIBILITY



USA.gov is the U.S. government's official web portal to all federal, state and local government web resources and services.